Regional Weather Roundup
Issued by NWS Sterling, VA

Home | Current Version | Previous Version | Text Only | Print | Product List | Glossary On
Versions: 1 2 3 4 5 6 7 8 9 10 11 12 13 14 15 16 17 18 19 20 21 22 23 24 25 26 27
000
ASUS41 KLWX 211210
RWRLWX

REGIONAL WEATHER ROUNDUP
NATIONAL WEATHER SERVICE BALTIMORE MD/WASHINGTON DC
700 AM EST TUE FEB 21 2017

Note: "FAIR" indicates few or no clouds below 12,000 feet
with no significant weather and/or obstructions to visibility.
 TC=TEMPERATURE CELSIUS

 * =Non NWS site. Station does not report precipitation (e.g. rain,
    snow, etc.), thunder, or fog.

DCZ001-MDZ009-015-VAZ040>042-051-053>054-211300-
WASHINGTON METRO

CITY           SKY/WX    TMP DP  RH WIND       PRES   REMARKS
WASHINGTON NAT CLOUDY    41  27  57 E6        30.35F
DULLES         CLOUDY    37  23  56 CALM      30.34R
ANDREWS AFB    CLOUDY    37  24  60 E6        30.33F
FT BELVOIR     PTCLDY    40  26  56 CALM      30.35S
QUANTICO       CLOUDY    42  31  64 E6        30.36R
COLLEGE PARK*  CLOUDY    36  23  60 CALM      30.35S
LEESBURG*      MOCLDY    39  28  65 MISG      30.35R
MANASSAS*      PTCLDY    32  29  88 CALM      30.35R
GAITHERSBURG*  CLOUDY    37  16  41 E5        30.37F

$$

MDZ006>007-011-014-211300-
BALTIMORE METRO

CITY           SKY/WX    TMP DP  RH WIND       PRES   REMARKS
BWI AIRPORT    CLOUDY    37  21  52 E5        30.35S
MD SCIENCE CTR   N/A     41  17  38 MISG      30.37S
MARTIN STATE   MOCLDY    39  23  52 NE3       30.38S
ANNAPOLIS      CLOUDY    41  24  51 E5        30.36R
FORT MEADE*    CLOUDY    34  21  60 CALM      30.38S

$$

MDZ012-015-019>023-211300-
MARYLAND EASTERN SHORE

CITY           SKY/WX    TMP DP  RH WIND       PRES   REMARKS
OCEAN CITY     MOCLDY    37  34  89 N3        30.35R
SALISBURY      MOCLDY    33  30  88 CALM      30.35R
BAY BRIDGE AP* CLOUDY    37  23  56 CALM      30.37R
EASTON*        MOCLDY    36  27  69 NE5       30.39S

$$

MDZ017>025-211300-
SOUTHERN MARYLAND

CITY           SKY/WX    TMP DP  RH WIND       PRES   REMARKS
PATUXENT RIVER CLOUDY    37  33  85 E7        30.35R
ST INIGOES     CLOUDY    39  32  76 NE5       30.34R
LEONARDTOWN*   PTCLDY    36  30  80 CALM      30.36S

$$

MDZ003>005-211300-
NORTH CENTRAL MARYLAND

CITY           SKY/WX    TMP DP  RH WIND       PRES   REMARKS
FREDERICK*     MOCLDY    30  30 100 CALM      30.38R
HAGERSTOWN APT PTCLDY    39  17  41 E3        30.30R
WESTMINSTER*   PTCLDY    37  19  48 SE5       30.32S

$$

MDZ501>502-211300-
WESTERN MARYLAND

CITY           SKY/WX    TMP DP  RH WIND       PRES   REMARKS
OAKLAND*       CLOUDY    36  28  75 SE15      30.14F WCI  26
CUMBERLAND*    MOCLDY    41  30  65 CALM      30.29S

$$

VAZ025>031-211300-
SHENANDOAH VALLEY

CITY           SKY/WX    TMP DP  RH WIND       PRES   REMARKS
WINCHESTER*    CLOUDY    41  23  48 E7        30.28S
FRONT ROYAL*   MOCLDY    43  27  52 CALM      30.26F
LURAY*         CLOUDY    37  34  87 CALM      30.27R
NEW MARKET*    CLOUDY    33  31  92 CALM      30.27R
STAUNTON*      CLOUDY    34  31  88 CALM      30.28F
WAYNESBORO*    CLOUDY    42  29  58 SE9       30.27S

$$

WVZ021-048>050-054>055-211300-
EASTERN WEST VIRGINIA PANHANDLE

CITY           SKY/WX    TMP DP  RH WIND       PRES   REMARKS
MARTINSBURG    CLOUDY    38  21  50 E3        30.29S
PETERSBURG*    PTCLDY    35  34  96 CALM      30.24F

$$

VAZ036>039-050-211300-
CENTRAL FOOTHILLS

CITY           SKY/WX    TMP DP  RH WIND       PRES   REMARKS
CHARLOTTESVILL CLOUDY    42  32  67 CALM      30.30S
CULPEPER*      MOCLDY    35  31  86 CALM      30.33S
ORANGE*        MOCLDY    34  32  93 CALM      30.33S
GORDONSVILLE*  MOCLDY    36  33  90 CALM      30.31S
WARRENTON*     CLOUDY    35  28  76 NE3       30.31S

$$

VAZ055>057-211300-
NORTH AND CENTRAL PIEDMONT

CITY           SKY/WX    TMP DP  RH WIND       PRES   REMARKS
FREDERICKSBRG* PTCLDY    37  34  87 CALM      30.34R
STAFFORD*      PTCLDY    34  30  85 CALM      30.38R

$$

NCZ024-NYZ072-PAZ021-071-VAZ022-071-211300-
OTHER REGIONAL OBSERVATIONS

CITY           SKY/WX    TMP DP  RH WIND       PRES   REMARKS
NEW YORK CITY  PTCLDY    35  17  47 VRB5      30.38F
PHILADELPHIA   CLOUDY    35  18  49 NE5       30.38S
PITTSBURGH     MOCLDY    48  32  53 SE7       30.08S
ROANOKE        PTCLDY    46  34  62 S5        30.29S
RICHMOND       CLOUDY    39  36  89 NE6       30.32R
RALEIGH        MOCLDY    47  35  63 E3        30.27S

$$

ANZ530>537-211300-
MARINE OBSERVATIONS

STATION/POSITION TIME  TEMP    WIND        PRES
                       AIR SEA DIR/SP/G
                 (UTC) (F)     (DEG/KT/KT) (MB)
THOMAS PT LIGHT  1200   40 43   60/  5/  6   N/A
BALT KEY BRIDGE  1136   39      80/  5/  5 1028.3F
COVE POINT       1136   39      70/  5/  6 1028.4R
LEWISETTA        1136   42 46  100/ 10/ 11 1027.2R
SOLOMONS ISLAND  1136   41 43   50/  3/  5   N/A
PINEY POINT      1148           80/  3/  4   N/A

$$





USA.gov is the U.S. government's official web portal to all federal, state and local government web resources and services.